Regional Weather Roundup
Issued by NWS

Home | Current Version | Previous Version | Graphics & Text | Print | Product List | Glossary On
Versions: 1 2 3 4 5 6 7 8 9 10 11 12 13 14 15 16 17 18 19 20 21 22 23 24 25 26 27 28 29 30 31 32 33 34 35 36 37 38 39 40 41 42 43 44 45 46 47 48 49 50
000
ASUS44 KMEG 241710
RWRTN
TENNESSEE HOURLY STATE WEATHER ROUNDUP
NATIONAL WEATHER SERVICE MEMPHIS TN
1200 PM CDT SUN SEP 24 2017

TNZ002-004-019-021-049-052-054-088>092-241800-
WEST TENNESSEE

CITY           SKY/WX    TMP DP  RH WIND       PRES   REMARKS
MEMPHIS INTL   MOSUNNY   85  67  54 S5        30.03S
NWS MEMPHIS      N/A     89 N/A N/A MISG        N/A
JACKSON        SUNNY     87  69  54 S6        30.04F HX  91
DYERSBURG      MOSUNNY   88  70  55 S7        30.04F HX  93
SOMERVILLE     SUNNY     86  68  54 VRB3      30.03S
COVINGTON      SUNNY     86  68  54 CALM      30.02F
BOLIVAR        SUNNY     86  70  58 SE5       30.03F HX  90
PARIS          SUNNY     86  70  58 VRB5      30.04S HX  90
HUNTINGDON     SUNNY     86  70  58 CALM      30.04S HX  90
LEXINGTON      SUNNY     84  68  58 VRB3      30.04F
SELMER         SUNNY     84  68  58 S5        30.05S
SAVANNAH       SUNNY     86  68  54 CALM      30.04F
$$

TNZ008-025-027-028-033-062-065-066-241800-
NORTH MIDDLE TENNESSEE

CITY           SKY/WX    TMP DP  RH WIND       PRES   REMARKS
NASHVILLE      MOSUNNY   87  63  44 SW6       30.06F
PORTLAND       SUNNY     86  68  54 S9        30.07S
CLARKSVILLE    SUNNY     85  68  56 VRB3      30.05F
COOKEVILLE     SUNNY     84  64  51 SW8       30.09F
GALLATIN       SUNNY     86  64  48 S7        30.09S
CROSSVILLE     CLOUDY    79  62  56 CALM      30.15F
$$

TNZ061-075-076-078-094-096-097-241800-
SOUTH MIDDLE TENNESSEE

CITY           SKY/WX    TMP DP  RH WIND       PRES   REMARKS
FAYETTEVILLE   SUNNY     82  66  57 S6        30.08F
TULLAHOMA      SUNNY     82  61  47 S6        30.10F
WINCHESTER     MOSUNNY   82  64  54 SE5       30.09S
MCMINNVILLE    MOSUNNY   84  68  58 CALM      30.09F
COLUMBIA       SUNNY     84 N/A N/A VRB5G12   30.04F
SHELBYVILLE    MOSUNNY   84  66  54 S7        30.07F
$$

TNZ017-018-042-046-047-241800-
NORTHEAST TENNESSEE

CITY           SKY/WX    TMP DP  RH WIND       PRES   REMARKS
TRI CITIES     MOSUNNY   83  57  41 CALM      30.13F
ELIZABETHTON   SUNNY     82  55  39 SW6       30.13F
$$

TNZ012-013-036-069-073-074-241800-
CENTRAL EAST TENNESSEE

CITY           SKY/WX    TMP DP  RH WIND       PRES   REMARKS
KNOXVILLE      PTSUNNY   82  64  54 NE6       30.10S
OAK RIDGE      SUNNY     83  64  52 CALM      30.12F
DOWNTOWN KNOXV SUNNY     82  66  57 VRB3      30.09F
GATLINBURG     MOSUNNY   84  63  48 VRB3      30.09F
MORRISTOWN     SUNNY     84  59  42 S5        30.11F
JACKSBORO      MOSUNNY   82  66  57 CALM      30.15F
$$

TNZ083-085-099-241800-
SOUTHEAST TENNESSEE

CITY           SKY/WX    TMP DP  RH WIND       PRES   REMARKS
CHATTANOOGA    MOSUNNY   83  64  52 CALM      30.09F
DAYTON         PTSUNNY   81  70  69 CALM      30.09F
$$

SKY/WX REPORTED AS FAIR MEANS FEW OR NO CLOUDS BELOW
12 THOUSAND FEET.




USA.gov is the U.S. government's official web portal to all federal, state and local government web resources and services.